This demonstration page uses our WeatherBlox Daily Observations layout. Learn more.

Left ArrowRight Arrow

Hourly Observations for December 4, 2019

Temp ( °F °C ) Dew Point ( °F °C ) Humidity (%) Winds ( mph kmh ) Pressure ( in mb ) Visibility ( mi km ) Precip ( " mm )
12:51 am 00:51 Mostly Clear 51 10.6 45 7.2 80 80 NNE 5 7 30.04 1017 10 16 N/A
1:51 am 01:51 Clear 50 10 45 7.2 83 83 NW 5 7 30.03 1017 10 16 N/A
2:51 am 02:51 Clear 50 10 46 7.8 86 86 E 5 7 30.02 1017 10 16 N/A
3:51 am 03:51 Clear 49 9.4 45 7.2 86 86 NNW 8 13 30.03 1017 10 16 N/A
4:51 am 04:51 Mostly Cloudy 49 9.4 45 7.2 86 86 SE 5 7 30.02 1017 10 16 N/A
5:51 am 05:51 Cloudy 50 10 45 7.2 83 83 NE 6 9 30.03 1017 10 16 N/A
6:51 am 06:51 Cloudy 50 10 45 7.2 83 83 ESE 8 13 30.06 1018 10 16 N/A
7:51 am 07:51 Mostly Sunny 53 11.7 43 6.1 69 69 SE 10 17 30.06 1018 10 16 0.01 0.25
8:51 am 08:51 Cloudy 52 11.1 44 6.7 75 75 SE 10 17 30.08 1019 10 16 N/A
9:51 am 09:51 Cloudy 53 11.7 45 7.2 74 74 SE 9 15 30.09 1019 10 16 N/A
10:51 am 10:51 Partly Cloudy 59 15 45 7.2 60 60 SE 12 19 30.06 1018 10 16 N/A
11:51 am 11:51 Partly Cloudy 64 17.8 44 6.7 48 48 ESE 12 19 30.01 1016 10 16 N/A
12:51 pm 12:51 Sunny 66 18.9 45 7.2 47 47 E 10 17 29.97 1015 10 16 N/A
1:51 pm 13:51 Sunny 67 19.4 46 7.8 47 47 ESE 10 17 29.92 1013 10 16 N/A
2:51 pm 14:51 Sunny 69 20.6 44 6.7 41 41 E 5 7 29.91 1013 10 16 N/A
3:51 pm 15:51 Partly Cloudy 68 20 45 7.2 44 44 ESE 8 13 29.91 1013 10 16 N/A
4:51 pm 16:51 Mostly Sunny 66 18.9 45 7.2 47 47 ESE 6 9 29.91 1013 10 16 N/A
5:51 pm 17:51 Mostly Cloudy 63 17.2 46 7.8 54 54 E 8 13 29.91 1013 10 16 N/A
6:51 pm 18:51 Mostly Clear 60 15.6 46 7.8 60 60 E 8 13 29.92 1013 10 16 N/A
7:51 pm 19:51 Cloudy 61 16.1 46 7.8 58 58 E 7 11 29.92 1013 10 16 N/A
8:51 pm 20:51 Mostly Cloudy 58 14.4 50 10 75 75 ENE 8 13 29.94 1014 10 16 0.00 0.00
9:51 pm 21:51 Clear 56 13.3 49 9.4 77 77 N 6 9 29.95 1014 10 16 N/A
10:51 pm 22:51 Cloudy 56 13.3 49 9.4 77 77 VRB 3 6 29.95 1014 10 16 N/A
11:51 pm 23:51 Cloudy 56 13.3 47 8.3 72 72 SSE 7 11 29.95 1014 10 16 N/A

Powered by AerisWeather